Location: Canazei
(46.4667°N, 11.7667°E)
Time: 06:07:52
(UTC+00:00)

Cosmos 2369 Rocket - Pass Details

Date: 21 April 2021
Orbit: 828 x 853 km, 71.0° (Epoch: 05 May)

Event Time Altitude Azimuth Distance (km) Brightness Sun altitude
Exits shadow 01:52:32 11° 156° (SSE) 2,341 4.3 -21.4°
Maximum altitude 01:56:48 26° 103° (ESE) 1,571 3.9 -20.9°
Drops below altitude 10° 02:01:22 10° 48° (NE) 2,451 5.8 -20.4°
Sets 02:04:09 0° 36° (NE) 3,393 6.9 -20.0°
